This is the latest recevied weather packets stored in our database for station/object ZR6G-15. If no packets are shown the sender has not sent any weather packets the latest 10 day(s).
| Time | Temp. | Humidity | Pressure | Rain* | Wind** | Luminosity | Snow |
|---|---|---|---|---|---|---|---|
| 1778064907 | 15.56° C | 18% | 1005.6 hPa | - | - | - | - |
| 1778064303 | 15.56° C | 18% | 1005.9 hPa | - | - | - | - |
| 1778063698 | 15.56° C | 18% | 1005.7 hPa | - | - | - | - |
| 1778063093 | 15.56° C | 18% | 1005.8 hPa | - | - | - | - |
| 1778062489 | 16.67° C | 18% | 1006 hPa | - | - | - | - |
| 1778061884 | 15.56° C | 18% | 1006.4 hPa | - | - | - | - |
| 1778061279 | 15.56° C | 18% | 1006.5 hPa | - | - | - | - |
| 1778060674 | 15.56° C | 18% | 1006.7 hPa | - | - | - | - |
| 1778060070 | 15.56° C | 18% | 1006.9 hPa | - | - | - | - |
| 1778059465 | 15° C | 21% | 1007.3 hPa | - | - | - | - |
| 1778058860 | 15° C | 19% | 1007.5 hPa | - | - | - | - |
| 1778058256 | 15° C | 19% | 1007.9 hPa | - | - | - | - |
| 1778057651 | 13.89° C | 19% | 1008 hPa | - | - | - | - |
| 1778057047 | 13.89° C | 25% | 1008.5 hPa | - | - | - | - |
| 1778056442 | 13.89° C | 21% | 1008.8 hPa | - | - | - | - |
| 1778055837 | 12.78° C | 24% | 1008.8 hPa | - | - | - | - |
| 1778055233 | 13.89° C | 25% | 1009.4 hPa | - | - | - | - |
| 1778054628 | 11.67° C | 34% | 1010.1 hPa | - | - | - | - |
| 1778054024 | 11.67° C | 36% | 1010.2 hPa | - | - | - | - |
| 1778053419 | 10.56° C | 37% | 1010.8 hPa | - | - | - | - |
| 1778052815 | 10° C | 35% | 1010.9 hPa | - | - | - | - |
| 1778052210 | 10° C | 41% | 1011.1 hPa | - | - | - | - |
| 1778051606 | 10° C | 41% | 1011.6 hPa | - | - | - | - |
| 1778051001 | 8.89° C | 41% | 1011.7 hPa | - | - | - | - |
| 1778050397 | 8.89° C | 42% | 1011.7 hPa | - | - | - | - |
* Rain since midnight (hover to see other rain measurements)
** Current wind speed in m/s (hover to see current wind gust speed)